Voltar ao catálogo

CZ-4 DEB

AtivoPO
NORAD 26152·DEBRIS·🇨🇳 China

Lançado Oct 14, 1999 de Taiyuan Satellite Launch Center

Loading…

Próximas Passagens (próximas 24 horas)

TLE

AtualizadoSource: Space-Track

Época: Sep 13, 2026, 23:15 UTC

1 26152U 99057AN  26256.96937412  .00000413  00000-0  38081-3 0  9999
2 26152  99.1375 256.6738 0520503  89.4555 304.8791 13.38580080289984

Acompanhe CZ-4 DEB em tempo real com AllMySat

Download on the App Store